CSDDJ KAMA-KTDW

Flight info

Callsign CSDDJ
Flight time 0h -11m
Altitude 2500
Route FOLLOW I40 ROAD TO WESTBOUND
Aircraft C152/L-SDFY/C

Departure

Time 2026-04-28 22:11
Airport Rick Husband Amarillo International Airport (KAMA)

Arrival

Time 2026-04-28 22:00
Airport Tradewind Airport (KTDW)
Time Latitude Longitude Altitude Speed Heading
2026-04-28 22:00 35.22119 -101.70256 3615 ft 0 kts 160°
2026-04-28 22:05 35.22112 -101.70258 3642 ft 3 kts 246°
2026-04-28 22:05 35.22143 -101.70291 3615 ft 8 kts 327°
2026-04-28 22:05 35.22200 -101.70332 3616 ft 10 kts 330°
2026-04-28 22:06 35.22269 -101.70385 3615 ft 14 kts 334°
2026-04-28 22:06 35.22353 -101.70473 3612 ft 18 kts 317°
2026-04-28 22:06 35.22441 -101.70576 3613 ft 16 kts 316°
2026-04-28 22:06 35.22478 -101.70619 3614 ft 0 kts 314°
2026-04-28 22:09 35.22522 -101.70671 3614 ft 12 kts 318°
2026-04-28 22:09 35.22568 -101.70680 3614 ft 8 kts 45°
2026-04-28 22:09 35.22703 -101.70515 3612 ft 48 kts 45°
2026-04-28 22:10 35.22971 -101.70153 3713 ft 55 kts 41°
2026-04-28 22:10 35.23222 -101.69803 3819 ft 57 kts 45°
2026-04-28 22:10 35.23512 -101.69442 3913 ft 60 kts 34°
2026-04-28 22:10 35.23854 -101.69601 4034 ft 72 kts 294°
2026-04-28 22:11 35.23739 -101.70224 4123 ft 85 kts 248°
2026-04-28 22:11 35.23484 -101.70899 4311 ft 88 kts 245°
2026-04-28 22:11 35.23208 -101.71578 4399 ft 95 kts 246°
2026-04-28 22:11 35.22894 -101.72287 4517 ft 94 kts 243°
2026-04-28 22:12 35.22607 -101.73090 4510 ft 107 kts 255°
2026-04-28 22:12 35.22367 -101.73911 4573 ft 101 kts 252°
2026-04-28 22:12 35.22163 -101.74743 4577 ft 107 kts 257°
2026-04-28 22:12 35.22000 -101.75618 4635 ft 104 kts 263°
2026-04-28 22:13 35.21856 -101.76477 4629 ft 104 kts 262°
2026-04-28 22:13 35.21737 -101.77349 4624 ft 103 kts 264°
2026-04-28 22:13 35.21635 -101.78198 4694 ft 96 kts 263°
2026-04-28 22:13 35.21541 -101.79001 4703 ft 97 kts 275°
2026-04-28 22:14 35.21643 -101.79810 4714 ft 94 kts 287°
2026-04-28 22:14 35.21849 -101.80584 4704 ft 98 kts 296°
2026-04-28 22:14 35.21996 -101.81379 4760 ft 101 kts 271°
2026-04-28 22:14 35.21708 -101.82187 4789 ft 104 kts 228°
2026-04-28 22:15 35.21088 -101.82628 4691 ft 107 kts 192°
2026-04-28 22:15 35.20382 -101.82898 4697 ft 106 kts 192°
2026-04-28 22:15 35.19678 -101.83165 4681 ft 109 kts 194°
2026-04-28 22:15 35.18934 -101.83411 4663 ft 111 kts 187°
2026-04-28 22:16 35.18176 -101.83668 4650 ft 111 kts 195°
2026-04-28 22:16 35.17438 -101.83951 4654 ft 112 kts 197°
2026-04-28 22:16 35.16736 -101.84272 4746 ft 103 kts 195°
2026-04-28 22:16 35.16023 -101.84475 4732 ft 105 kts 189°
2026-04-28 22:17 35.15323 -101.84611 4693 ft 98 kts 186°
2026-04-28 22:17 35.14680 -101.84551 4611 ft 85 kts 157°
2026-04-28 22:17 35.14317 -101.84106 4525 ft 73 kts 103°
2026-04-28 22:17 35.14457 -101.83567 4362 ft 73 kts 39°
2026-04-28 22:18 35.14844 -101.83235 4195 ft 64 kts 38°
2026-04-28 22:18 35.15195 -101.82904 4101 ft 65 kts 30°
2026-04-28 22:18 35.15627 -101.82690 4015 ft 63 kts 13°
2026-04-28 22:18 35.16062 -101.82644 3781 ft 60 kts
2026-04-28 22:19 35.16454 -101.82644 3662 ft 52 kts 360°
2026-04-28 22:19 35.16763 -101.82644 3644 ft 35 kts
2026-04-28 22:19 35.16949 -101.82644 3643 ft 12 kts 359°
2026-04-28 22:19 35.16984 -101.82671 3642 ft 7 kts 269°
2026-04-28 22:20 35.16984 -101.82707 3645 ft 0 kts 271°
2026-04-28 22:20 35.16984 -101.82715 3645 ft 5 kts 267°
2026-04-28 22:20 35.16929 -101.82776 3642 ft 12 kts 189°
2026-04-28 22:20 35.16919 -101.82775 3641 ft 0 kts 143°